Temperature
16 16 16 16 16 16 16 17 17 18 18 17 17 16 16 16 16 15 15 15 16 16 16 15 15 15 15 15 15 15 15 15 15 14 14 14 14 14
16 15 15 16 16 16 16 16 16 17 17 17 16 16 15 15 15 15 15 15 15 15 15 15 15 15 15 15 15 15 14 14 14 14 14 14 14 14
15 15 15 15 15 16 16 16 16 16 16 16 16 15 15 15 15 14 14 14 14 15 15 15 15 15 15 14 14 14 14 14 14 14 14 14 14 14
15 15 15 15 15 15 15 15 15 15 15 15 15 15 14 14 14 14 14 14 14 14 14 14 14 14 14 14 14 14 13 13 13 13 13 13 13 13
15 15 15 14 14 14 14 15 15 15 14 14 14 14 13 13 13 13 13 13 13 13 13 13 13 13 13 13 13 13 13 13 12 12 12 12 13 13
15 14 14 14 14 14 14 14 14 14 14 14 14 13 13 12 12 12 12 12 12 12 12 12 12 12 12 12 12 12 11 11 11 11 11 12 12 12
14 14 14 14 14 14 13 13 13 13 13 13 13 13 12 12 11 11 11 11 11 11 10 11 10 10 10 10 10 10 10 10 10 10 10 10 10 11
14 14 14 13 13 13 13 13 13 12 12 12 12 11 11 10 10 10 10 10 10 10 10 10 10 9 9 9 9 9 9 9 9 9 9 9 9 9
13 13 13 13 12 12 12 12 12 12 11 11 10 10 9 9 9 9 9 9 9 9 8 9 9 9 8 8 8 8 8 8 8 8 8 8 8 8
12 12 12 12 11 11 11 11 11 10 10 10 9 9 9 9 8 8 8 8 8 8 8 8 8 8 8 7 7 7 7 7 7 7 7 7 7 7
11 11 11 11 11 10 10 10 9 9 9 9 8 8 8 8 8 7 7 7 8 8 7 6 7 7 7 7 7 6 6 6 6 6 6 6 6 6
10 10 10 10 9 9 9 8 8 7 7 7 7 7 6 6 6 6 6 6 6 7 6 5 6 6 6 7 6 6 5 5 5 5 5 5 5 5
9 9 9 9 8 8 8 8 7 7 6 6 6 6 6 5 5 5 5 5 5 5 5 4 4 4 5 5 5 5 5 5 5 5 5 4 4 4
9 8 8 8 7 7 7 7 6 6 6 6 6 5 5 5 4 4 4 4 4 4 4 3 3 3 3 4 5 5 5 5 4 4 4 4 4 4
8 7 7 7 6 6 6 6 5 5 5 5 5 5 4 4 4 4 4 3 3 3 3 3 2 2 3 3 4 4 4 4 4 4 4 4 4 4
7 6 6 5 5 5 5 5 5 4 4 4 4 4 4 4 4 3 3 3 4 4 3 3 2 2 2 3 3 3 4 4 4 4 3 3 3 3
6 5 5 5 5 5 4 4 4 4 4 4 4 4 3 3 3 3 3 3 3 3 3 3 3 2 2 2 3 3 3 3 3 3 2 3 3 3
5 5 5 5 4 4 4 4 4 3 3 3 3 3 3 3 3 3 3 3 3 3 3 3 2 2 3 3 3 3 3 2 2 2 2 2 3 3
5 5 4 4 4 4 4 4 3 3 2 3 3 2 2 2 2 2 2 2 2 2 2 2 2 2 2 3 3 2 2 2 2 2 2 2 2 2
4 4 4 4 4 3 3 3 3 3 2 2 2 2 2 2 2 2 2 1 1 1 2 2 2 1 1 1 1 2 2 1 1 1 2 2 2 2
4 4 4 3 3 3 2 2 2 2 2 2 2 1 1 1 1 1 1 1 1 1 1 1 1 0 1 1 1 2 2 1 1 1 1 1 2 2
4 4 3 3 2 2 2 2 2 2 2 2 1 1 1 1 1 1 1 1 1 1 1 1 1 1 1 1 1 1 1 1 1 1 1 1 1 1
3 3 3 2 2 2 2 2 2 2 1 1 1 1 1 1 1 1 1 1 1 1 1 1 1 1 1 1 1 1 1 1 2 2 2 1 1 0
Wind_Speed
7 7 6 4 4 3 3 4 5 4 3 4 3 2 1 1 2 2 1 3 1 1 2 3 4 5 6 6 7 7 8 9 10 11 11 12 13 14
5 5 4 4 3 4 4 4 4 5 4 1 2 1 2 2 2 2 1 4 4 2 2 3 4 4 5 5 6 6 7 8 9 10 11 12 13 14
6 6 5 4 4 4 4 4 4 4 5 3 2 1 1 3 3 3 3 2 2 5 4 4 4 4 4 4 5 5 6 7 8 9 10 11 12 13
7 6 6 5 4 4 3 4 3 3 5 4 2 1 0 1 2 3 3 3 2 7 6 5 4 5 5 5 5 5 6 7 8 8 9 10 11 11
6 6 6 5 4 3 3 3 3 3 3 3 3 0 1 1 2 2 2 3 4 3 4 4 4 4 4 5 5 6 7 7 8 9 9 10 11 11
4 4 3 4 4 3 3 2 2 2 2 3 2 1 1 1 3 3 3 2 4 4 4 2 1 2 2 3 4 6 7 8 9 10 11 12 13 13
5 5 5 7 7 4 1 1 0 1 1 2 1 1 1 3 3 4 5 4 3 3 5 5 3 3 2 2 4 7 8 9 10 11 12 13 14 14
7 7 8 9 11 12 13 13 9 4 2 2 2 2 3 4 4 5 5 6 4 4 7 7 5 5 6 5 6 6 7 9 10 11 12 14 15 16
6 6 6 7 8 9 11 13 14 14 10 5 5 5 4 5 6 6 5 6 6 7 7 7 6 6 7 5 3 2 5 8 10 12 13 15 16 17
7 7 7 7 7 7 9 10 11 10 9 8 8 7 7 7 6 5 5 5 5 3 5 7 7 8 9 9 3 3 5 8 11 12 14 15 16 19
9 9 9 9 9 7 9 10 9 9 13 14 12 9 8 8 8 6 6 6 7 6 5 7 8 10 10 9 5 4 8 11 12 13 14 15 16 19
10 11 13 12 10 8 8 8 8 6 5 5 5 3 3 4 4 6 7 7 7 6 5 7 9 10 9 7 9 12 12 11 12 14 15 15 14 15
10 9 10 13 13 12 9 8 6 3 3 3 3 3 3 4 5 7 7 7 8 8 8 8 9 10 10 11 12 11 12 12 13 13 12 11 12 12
10 9 10 13 13 11 9 7 2 2 2 2 3 4 4 5 6 7 7 7 7 9 9 9 9 10 12 13 12 12 12 12 12 11 12 12 12 14
11 14 13 12 10 9 8 2 1 2 3 3 4 5 5 5 6 5 6 6 8 8 7 7 9 10 11 12 12 13 13 12 10 11 12 12 12 12
12 12 10 7 6 6 4 3 4 5 5 5 5 5 5 5 6 7 8 8 8 7 5 7 9 10 11 12 12 13 12 11 11 12 12 13 13 13
8 6 5 5 5 5 5 4 4 4 4 5 5 5 6 6 7 7 7 8 9 9 9 8 9 10 11 12 12 11 11 12 12 12 13 13 12 12
5 6 5 5 4 4 4 4 4 5 5 5 5 6 7 7 8 8 8 8 9 10 10 10 10 10 10 9 6 10 11 12 12 13 13 13 14 13
5 6 5 5 4 4 4 4 4 5 5 5 6 7 7 8 8 8 8 9 9 10 10 10 10 10 12 13 10 7 12 13 13 13 12 13 14 14
5 6 5 4 4 4 4 4 4 4 5 6 6 7 7 8 8 9 9 10 11 11 11 10 10 10 12 13 14 13 11 11 12 13 14 14 13 13
6 5 5 4 4 4 4 4 4 5 6 7 7 7 8 8 8 9 9 10 10 10 11 11 10 11 12 11 12 11 11 11 11 12 14 14 14 13
5 5 5 4 4 4 4 4 4 5 6 6 7 7 8 8 9 10 10 10 10 11 12 12 12 11 11 11 13 14 14 14 13 13 12 10 11 13
5 4 4 3 3 3 4 5 6 6 6 7 8 8 8 9 9 9 10 10 10 11 12 12 12 11 11 12 12 13 15 15 12 12 10 7 11 15
Wind_Direction
201 200 222 217 228 242 254 265 270 266 229 180 209 137 244 59 31 270 260 119 160 241 271 279 282 281 279 277 276 278 280 282 282 281 279 277 274 270
208 203 218 221 218 226 239 251 266 277 276 226 207 155 9 311 72 330 306 118 107 78 15 332 315 306 300 294 291 292 293 293 292 290 289 286 283 279
197 197 204 226 224 224 227 238 244 254 259 255 205 130 48 332 7 329 302 277 106 93 63 28 4 350 337 324 316 316 314 312 309 307 303 299 295 291
196 194 199 200 209 235 237 240 246 262 264 267 257 214 134 327 334 304 320 319 339 95 84 60 42 28 19 9 359 353 348 342 335 329 322 315 309 304
194 195 201 202 200 208 233 241 242 239 259 262 249 296 271 347 306 293 312 331 310 111 106 97 70 50 42 35 27 24 16 5 355 346 338 331 324 316
170 170 175 180 181 191 199 222 247 248 232 250 253 244 275 350 314 316 312 322 320 327 356 342 132 159 132 88 51 33 18 4 353 345 340 334 327 320
140 127 113 94 72 63 75 114 189 250 245 247 268 291 3 360 345 330 326 320 319 346 328 312 301 297 279 159 81 34 13 359 347 340 337 334 329 322
134 123 113 101 91 79 68 59 47 40 19 355 8 30 25 9 353 333 334 326 321 4 330 315 317 313 315 322 49 30 1 348 341 337 333 330 326 321
128 129 121 110 111 107 95 86 68 57 48 40 52 38 32 19 354 342 349 334 325 327 320 309 316 313 309 322 80 9 337 330 327 325 323 322 321 317
106 112 113 108 102 106 103 90 75 61 56 59 62 50 42 20 357 336 323 307 287 300 335 312 320 316 313 304 230 220 290 301 304 307 308 310 312 311
96 92 99 98 79 84 102 100 93 87 82 84 82 80 68 43 9 346 343 327 324 328 353 323 320 318 309 298 285 240 273 276 281 287 290 295 301 303
97 85 76 83 72 64 95 98 94 85 80 91 95 106 64 58 33 2 346 332 326 322 3 332 321 323 313 310 321 316 306 293 279 273 272 277 288 305
106 97 88 80 73 63 68 82 80 75 81 69 62 46 26 13 7 5 354 334 327 319 337 330 318 317 309 308 311 312 314 314 312 307 290 272 272 286
105 102 98 90 81 73 75 75 45 303 50 40 27 19 9 5 360 348 340 326 313 302 306 314 310 314 310 308 311 316 316 315 315 314 315 312 295 279
100 102 105 107 106 92 89 75 336 32 34 25 20 12 2 354 330 322 317 307 290 285 294 307 306 309 306 305 309 312 314 316 318 318 318 317 315 312
108 111 112 106 107 108 120 85 56 41 22 20 8 356 345 338 335 338 332 328 319 315 314 305 297 299 300 304 304 306 311 314 317 319 320 314 311 310
122 124 118 111 95 82 72 58 47 39 25 13 359 351 346 343 341 338 331 323 324 325 326 324 317 305 295 295 302 308 314 316 318 323 316 311 312 311
118 107 99 89 81 71 62 56 45 30 15 2 355 350 346 341 336 335 334 331 328 327 326 326 323 317 311 305 301 311 314 317 318 317 311 310 311 314
111 100 98 91 80 68 54 43 36 30 4 354 353 348 342 337 336 336 336 333 330 327 325 325 326 326 322 320 320 314 314 314 314 313 313 312 309 312
100 99 97 90 76 58 46 35 22 13 2 352 349 346 341 336 335 334 334 336 329 324 324 326 330 331 322 314 311 311 307 310 315 315 315 313 309 304
101 98 92 83 69 55 41 24 11 4 0 343 347 343 337 334 335 333 330 330 320 322 326 326 330 317 304 303 305 311 318 313 303 304 312 315 318 318
97 92 82 70 61 48 30 13 2 0 354 345 347 340 336 334 332 329 328 327 326 326 324 322 323 318 316 315 315 317 320 321 311 287 279 286 313 317
88 85 85 77 64 44 24 5 356 358 356 349 344 339 336 333 329 327 326 325 326 327 326 326 326 324 322 319 318 319 321 325 326 326 322 294 277 275
Height
1567 1568 1570 1571 1572 1574 1575 1576 1577 1576 1576 1576 1577 1576 1576 1576 1575 1575 1575 1573 1573 1573 1572 1572 1572 1571 1570 1570 1569 1568 1567 1566 1565 1564 1564 1563 1562 1561
1564 1565 1567 1569 1570 1571 1572 1573 1574 1575 1574 1574 1574 1574 1573 1574 1572 1572 1571 1570 1569 1569 1569 1568 1567 1567 1566 1565 1564 1563 1562 1561 1560 1559 1558 1557 1557 1556
1561 1563 1564 1566 1567 1569 1570 1571 1571 1572 1572 1572 1572 1571 1570 1570 1569 1569 1568 1567 1566 1565 1564 1563 1563 1562 1561 1560 1559 1558 1557 1556 1555 1554 1552 1551 1550 1550
1559 1560 1562 1563 1564 1566 1567 1568 1568 1569 1569 1569 1569 1568 1567 1566 1565 1565 1565 1565 1563 1561 1559 1559 1558 1556 1555 1554 1553 1552 1551 1550 1548 1547 1546 1545 1544 1542
1556 1558 1559 1561 1561 1563 1564 1565 1565 1566 1566 1566 1566 1565 1565 1563 1562 1562 1562 1560 1560 1558 1555 1554 1553 1551 1550 1549 1547 1546 1544 1543 1542 1540 1539 1538 1536 1535
1553 1555 1556 1558 1559 1560 1561 1561 1562 1562 1562 1563 1563 1562 1562 1560 1560 1559 1559 1557 1556 1555 1552 1550 1548 1547 1545 1543 1542 1540 1538 1537 1535 1534 1532 1531 1529 1527
1550 1552 1554 1555 1556 1557 1558 1558 1559 1560 1560 1560 1560 1560 1559 1558 1557 1556 1556 1554 1552 1551 1549 1548 1546 1544 1542 1539 1536 1534 1533 1531 1529 1527 1525 1524 1522 1520
1548 1549 1551 1552 1553 1554 1555 1555 1556 1557 1557 1557 1557 1557 1556 1555 1554 1553 1552 1551 1550 1548 1545 1544 1543 1541 1539 1537 1533 1530 1528 1526 1523 1521 1519 1517 1515 1513
1545 1547 1549 1550 1551 1551 1552 1553 1553 1553 1554 1554 1554 1554 1553 1552 1551 1550 1549 1547 1545 1543 1542 1540 1539 1537 1535 1532 1528 1526 1523 1521 1518 1515 1513 1510 1508 1505
1543 1545 1547 1548 1549 1550 1551 1551 1551 1551 1551 1551 1551 1550 1550 1549 1548 1548 1546 1544 1543 1541 1538 1538 1535 1533 1531 1528 1524 1521 1519 1516 1513 1510 1507 1504 1501 1498
1542 1544 1545 1546 1547 1548 1549 1549 1549 1549 1549 1549 1549 1548 1547 1546 1546 1545 1544 1543 1542 1540 1537 1535 1532 1529 1526 1524 1522 1517 1514 1511 1508 1504 1501 1498 1495 1492
1541 1543 1544 1545 1546 1547 1548 1548 1549 1549 1549 1548 1548 1547 1547 1545 1544 1543 1542 1541 1540 1538 1535 1532 1529 1526 1523 1521 1518 1515 1511 1507 1503 1500 1496 1493 1490 1486
1540 1542 1543 1545 1546 1547 1547 1548 1548 1548 1549 1549 1549 1548 1547 1545 1544 1542 1540 1538 1537 1535 1533 1529 1527 1524 1521 1517 1514 1511 1508 1504 1501 1497 1493 1489 1486 1483
1540 1542 1543 1545 1546 1546 1547 1547 1547 1548 1549 1549 1549 1548 1547 1545 1542 1540 1537 1535 1532 1531 1528 1526 1524 1521 1518 1514 1510 1507 1504 1500 1497 1493 1490 1486 1482 1479
1540 1542 1543 1545 1546 1547 1547 1547 1548 1550 1550 1549 1549 1547 1545 1543 1540 1538 1536 1533 1530 1528 1527 1523 1521 1518 1515 1512 1507 1504 1500 1496 1493 1489 1486 1482 1478 1475
1541 1543 1544 1546 1547 1548 1549 1549 1550 1549 1549 1549 1548 1546 1544 1542 1540 1538 1535 1533 1530 1528 1525 1522 1518 1515 1512 1508 1505 1501 1497 1494 1490 1486 1482 1478 1474 1471
1542 1545 1548 1549 1550 1550 1551 1550 1550 1550 1549 1548 1547 1545 1544 1541 1539 1536 1533 1531 1528 1526 1523 1520 1517 1513 1509 1506 1502 1498 1495 1491 1487 1482 1478 1474 1470 1467
1546 1548 1550 1550 1551 1552 1552 1552 1551 1550 1549 1548 1547 1545 1543 1540 1538 1535 1533 1530 1527 1523 1520 1517 1513 1510 1506 1503 1500 1496 1492 1488 1483 1479 1475 1470 1466 1463
1549 1550 1551 1552 1553 1553 1553 1552 1551 1550 1548 1548 1546 1544 1542 1539 1536 1534 1531 1528 1525 1521 1518 1515 1511 1507 1504 1499 1496 1493 1489 1484 1480 1475 1471 1467 1462 1458
1551 1552 1552 1553 1553 1553 1553 1552 1552 1550 1549 1547 1545 1543 1541 1538 1535 1532 1529 1526 1523 1519 1516 1513 1509 1506 1502 1498 1492 1489 1486 1481 1477 1472 1467 1463 1458 1454
1552 1553 1554 1554 1554 1553 1553 1552 1551 1550 1548 1546 1544 1542 1539 1537 1534 1531 1528 1524 1521 1517 1514 1510 1507 1503 1498 1494 1490 1485 1482 1478 1474 1469 1464 1459 1454 1449
1554 1554 1554 1554 1554 1553 1553 1552 1551 1549 1547 1545 1543 1541 1538 1535 1532 1529 1526 1523 1519 1516 1512 1508 1504 1500 1496 1492 1487 1482 1478 1474 1470 1465 1461 1456 1452 1446
1554 1554 1554 1554 1554 1553 1552 1551 1550 1549 1547 1544 1542 1539 1536 1534 1531 1527 1524 1521 1517 1514 1510 1506 1502 1498 1494 1490 1485 1480 1475 1471 1466 1462 1458 1453 1449 1444